Regional Weather Roundup
Issued by NWS

Home | Current Version | Previous Version | Text Only | Print | Product List | Glossary Off
Versions: 1 2 3 4 5 6 7 8 9 10 11 12 13 14 15 16 17 18 19 20 21 22 23 24 25 26 27 28 29 30 31 32 33 34 35 36 37 38 39 40 41 42 43 44 45 46 47 48 49 50

000
ASUS45 KBOI 230110
RWRID
WEATHER ROUNDUP FOR IDAHO
NATIONAL WEATHER SERVICE BOISE ID
700 PM MDT FRI AUG 22 2014

NOTE: "FAIR" INDICATES FEW OR NO CLOUDS BELOW 12000 FEET
WITH NO SIGNIFICANT WEATHER AND/OR OBSTRUCTIONS TO VISIBILITY

IDZ012-014-230200-
SOUTHWEST IDAHO


CITY           SKY/WX    TMP DP  RH WIND       PRES   REMARKS
BOISE          SUNNY     80  32  17 NW10      29.86R
CALDWELL       MOSUNNY   75  39  27 N14       29.87R
MOUNTAIN HOME  CLOUDY    75  45  34 SE8       29.87S
$$

IDZ016-017-230200-
SOUTHCENTRAL IDAHO


CITY           SKY/WX    TMP DP  RH WIND       PRES   REMARKS
BURLEY         MOSUNNY   61  51  70 NE14      29.96R
JEROME         MOSUNNY   63  53  70 E15       29.95R
TWIN FALLS     MOSUNNY   70  54  56 E5        29.93S
$$

IDZ019>023-230200-
SOUTHEAST IDAHO


CITY           SKY/WX    TMP DP  RH WIND       PRES   REMARKS
IDAHO FALLS    LGT RAIN  56  52  86 S6        30.05S
POCATELLO      PTSUNNY   57  52  83 NE6       30.00R
REXBURG        PTSUNNY   57  47  69 S9        30.06R
$$

IDZ006-010-011-018-031-032-230200-
CENTRAL IDAHO MOUNTAINS


CITY           SKY/WX    TMP DP  RH WIND       PRES   REMARKS
MCCALL         MOSUNNY   55  47  74 W3        30.00S
HAILEY         LGT RAIN  52  46  82 W9        30.10R
STANLEY          N/A     44  41  89 CALM      30.13S
SALMON         CLOUDY    57  45  62 S12       30.02F
CHALLIS        CLOUDY    52  44  74 S9        30.09S
$$

IDZ002-004-006-007-026-230200-
NORTHERN IDAHO


CITY           SKY/WX    TMP DP  RH WIND       PRES   REMARKS
LEWISTON       TSTM      64  55  72 SE14G24   29.93R
LOWELL           N/A     58  56  93 CALM      30.06R
COEUR D`ALENE  MOSUNNY  N/A N/A N/A N16       30.00S
MULLAN PASS    CLOUDY    49  45  86 CALM      30.13S
$$


USA.gov is the U.S. government's official web portal to all federal, state and local government web resources and services.